This is the latest recevied weather packets stored in our database for station/object HS3PIK-2. If no packets are shown the sender has not sent any weather packets the latest 10 day(s).
| Time | Temp. | Humidity | Pressure | Rain* | Wind** | Luminosity | Snow |
|---|---|---|---|---|---|---|---|
| 1788593550 | 32.22° C | 71% | - | - | - | 0 W/m² | - |
| 1788593225 | 32.78° C | 70% | - | - | - | 0 W/m² | - |
| 1788592895 | 32.78° C | 68% | - | - | - | 0 W/m² | - |
| 1788592560 | 32.78° C | 69% | - | - | - | 0 W/m² | - |
| 1788592228 | 33.33° C | 67% | - | - | - | 0 W/m² | - |
| 1788591898 | 33.89° C | 68% | - | - | - | 0 W/m² | - |
| 1788591566 | 33.33° C | 69% | - | - | - | 0 W/m² | - |
| 1788591236 | 32.78° C | 69% | - | - | - | 0 W/m² | - |
| 1788590908 | 33.33° C | 69% | - | - | - | 0 W/m² | - |
| 1788590581 | 32.78° C | 70% | - | - | - | 0 W/m² | - |
| 1788590253 | 32.78° C | 71% | - | - | - | 0 W/m² | - |
| 1788589923 | 32.22° C | 71% | - | - | - | 0 W/m² | - |
| 1788589596 | 32.22° C | 70% | - | - | - | 0 W/m² | - |
| 1788589271 | 32.22° C | 70% | - | - | - | 0 W/m² | - |
| 1788588938 | 32.22° C | 69% | - | - | - | 0 W/m² | - |
| 1788588611 | 33.33° C | 68% | - | - | - | 0 W/m² | - |
| 1788588281 | 32.78° C | 69% | - | - | - | 0 W/m² | - |
| 1788587953 | 32.78° C | 70% | - | - | - | 0 W/m² | - |
| 1788587629 | 32.78° C | 71% | - | - | - | 0 W/m² | - |
| 1788587298 | 32.22° C | 71% | - | - | - | 0 W/m² | - |
| 1788586968 | 32.22° C | 72% | - | - | - | 0 W/m² | - |
| 1788586639 | 32.22° C | 71% | - | - | - | 0 W/m² | - |
| 1788586311 | 31.67° C | 72% | - | - | - | 0 W/m² | - |
| 1788585979 | 32.22° C | 69% | - | - | - | 0 W/m² | - |
| 1788585651 | 31.67° C | 72% | - | - | - | 0 W/m² | - |
* Rain since midnight (hover to see other rain measurements)
** Current wind speed in m/s (hover to see current wind gust speed)